| time (UTC) | temp F | wind direction | speed MPH | gust MPH | rain 1hr in | rain 24hr in | rain mn in | humidity % | barometer mb |
| 20260904104703 | 83 | 162 | 3.0 | 6.0 | 0.00 | 0.00 | 0.00 | 62 | 1022.3 |
| 20260904104456 | 83 | 130 | 2.0 | 6.0 | 0.00 | 0.00 | 0.00 | 62 | 1022.4 |
| 20260904103705 | 83 | 184 | 2.0 | 7.0 | 0.00 | 0.00 | 0.00 | 63 | 1022.4 |
| 20260904103204 | 83 | 129 | 3.0 | 7.0 | 0.00 | 0.00 | 0.00 | 63 | 1022.4 |
| 20260904102704 | 83 | 152 | 3.0 | 6.0 | 0.00 | 0.00 | 0.00 | 63 | 1022.4 |
| 20260904102206 | 83 | 226 | 2.0 | 7.0 | 0.00 | 0.00 | 0.00 | 61 | 1022.5 |
| 20260904101952 | 83 | 121 | 2.0 | 7.0 | 0.00 | 0.00 | 0.00 | 62 | 1022.5 |
| 20260904101203 | 83 | 187 | 2.0 | 5.0 | 0.00 | 0.00 | 0.00 | 60 | 1022.5 |
| 20260904100704 | 83 | 151 | 2.0 | 5.0 | 0.00 | 0.00 | 0.00 | 62 | 1022.6 |
| 20260904100204 | 83 | 178 | 2.0 | 7.0 | 0.00 | 0.00 | 0.00 | 61 | 1022.6 |
| 20260904095703 | 83 | 74 | 2.0 | 7.0 | 0.00 | 0.00 | 0.00 | 61 | 1022.6 |
| 20260904095445 | 83 | 152 | 3.0 | 7.0 | 0.00 | 0.00 | 0.00 | 61 | 1022.7 |
| 20260904094702 | 83 | 110 | 3.0 | 7.0 | 0.00 | 0.00 | 0.00 | 60 | 1022.6 |
| 20260904094200 | 83 | 91 | 2.0 | 6.0 | 0.00 | 0.00 | 0.00 | 61 | 1022.6 |
| 20260904093659 | 83 | 167 | 2.0 | 4.0 | 0.00 | 0.00 | 0.00 | 59 | 1022.6 |
| 20260904093159 | 82 | 125 | 2.0 | 4.0 | 0.00 | 0.00 | 0.00 | 58 | 1022.6 |
| 20260904092659 | 82 | 111 | 2.0 | 4.0 | 0.00 | 0.00 | 0.00 | 60 | 1022.6 |
| 20260904092200 | 82 | 151 | 2.0 | 6.0 | 0.00 | 0.00 | 0.00 | 59 | 1022.6 |
| 20260904091701 | 82 | 129 | 2.0 | 6.0 | 0.00 | 0.00 | 0.00 | 59 | 1022.7 |
| 20260904091157 | 82 | 149 | 2.0 | 5.0 | 0.00 | 0.00 | 0.00 | 58 | 1022.7 |
| 20260904090657 | 82 | 135 | 2.0 | 4.0 | 0.00 | 0.00 | 0.00 | 58 | 1022.6 |
| 20260904090158 | 82 | 168 | 2.0 | 4.0 | 0.00 | 0.00 | 0.00 | 59 | 1022.6 |
| 20260904085657 | 82 | 174 | 2.0 | 5.0 | 0.00 | 0.00 | 0.00 | 57 | 1022.6 |
| 20260904085158 | 81 | 108 | 2.0 | 5.0 | 0.00 | 0.00 | 0.00 | 61 | 1022.6 |
| 20260904084655 | 81 | 136 | 2.0 | 4.0 | 0.00 | 0.00 | 0.00 | 62 | 1022.5 |
| 20260904084156 | 81 | 169 | 2.0 | 4.0 | 0.00 | 0.00 | 0.00 | 61 | 1022.5 |
| 20260904083939 | 80 | 152 | 2.0 | 4.0 | 0.00 | 0.00 | 0.00 | 63 | 1022.5 |
| 20260904083152 | 80 | 141 | 1.0 | 5.0 | 0.00 | 0.00 | 0.00 | 63 | 1022.5 |
| 20260904082934 | 80 | 157 | 1.0 | 5.0 | 0.00 | 0.00 | 0.00 | 64 | 1022.6 |
| 20260904082150 | 80 | 158 | 2.0 | 5.0 | 0.00 | 0.00 | 0.00 | 62 | 1022.6 |
| 20260904081644 | 80 | 163 | 2.0 | 4.0 | 0.00 | 0.00 | 0.00 | 63 | 1022.6 |
| 20260904081139 | 80 | 150 | 2.0 | 6.0 | 0.00 | 0.00 | 0.00 | 62 | 1022.5 |
| 20260904080635 | 80 | 105 | 2.0 | 6.0 | 0.00 | 0.00 | 0.00 | 62 | 1022.5 |
| 20260904080135 | 80 | 193 | 2.0 | 4.0 | 0.00 | 0.00 | 0.00 | 62 | 1022.4 |
| 20260904075636 | 80 | 152 | 2.0 | 5.0 | 0.00 | 0.00 | 0.00 | 62 | 1022.4 |
| 20260904075136 | 80 | 170 | 2.0 | 5.0 | 0.00 | 0.00 | 0.00 | 61 | 1022.3 |
| 20260904074633 | 80 | 177 | 2.0 | 4.0 | 0.00 | 0.00 | 0.00 | 59 | 1022.3 |
| 20260904074133 | 80 | 119 | 1.0 | 3.0 | 0.00 | 0.00 | 0.00 | 64 | 1022.3 |
| 20260904073634 | 80 | 115 | 1.0 | 3.0 | 0.00 | 0.00 | 0.00 | 63 | 1022.2 |
| 20260904073140 | 80 | 115 | 1.0 | 3.0 | 0.00 | 0.00 | 0.00 | 65 | 1022.2 |
| 20260904072633 | 80 | 114 | 1.0 | 3.0 | 0.00 | 0.00 | 0.00 | 64 | 1022.1 |
| 20260904072134 | 80 | 113 | 1.0 | 3.0 | 0.00 | 0.00 | 0.00 | 60 | 1022.1 |
| 20260904071635 | 80 | 112 | 1.0 | 3.0 | 0.00 | 0.00 | 0.00 | 65 | 1022.1 |
| 20260904071136 | 80 | 72 | 1.0 | 3.0 | 0.00 | 0.00 | 0.00 | 59 | 1022.0 |
| 20260904070942 | 80 | 72 | 1.0 | 2.0 | 0.00 | 0.00 | 0.00 | 61 | 1022.0 |
| 20260904070134 | 80 | 72 | 1.0 | 2.0 | 0.00 | 0.00 | 0.00 | 62 | 1022.0 |
| 20260904065713 | 79 | 72 | 1.0 | 2.0 | 0.00 | 0.00 | 0.00 | 64 | 1021.8 |
| 20260904065700 | 79 | 72 | 1.0 | 2.0 | 0.00 | 0.00 | 0.00 | 61 | 1021.8 |
| 20260904064922 | 79 | 72 | 1.0 | 2.0 | 0.00 | 0.00 | 0.00 | 64 | 1021.8 |
| 20260904064134 | 79 | 72 | 1.0 | 2.0 | 0.00 | 0.00 | 0.00 | 65 | 1021.8 |
| 20260904063637 | 78 | 72 | 1.0 | 2.0 | 0.00 | 0.00 | 0.00 | 65 | 1021.7 |
| 20260904063133 | 78 | 72 | 1.0 | 2.0 | 0.00 | 0.00 | 0.00 | 65 | 1021.7 |
| 20260904062645 | 78 | 72 | 1.0 | 3.0 | 0.00 | 0.00 | 0.00 | 65 | 1021.7 |
| 20260904062133 | 78 | 72 | 1.0 | 3.0 | 0.00 | 0.00 | 0.00 | 64 | 1021.7 |
| 20260904061633 | 78 | 72 | 1.0 | 3.0 | 0.00 | 0.00 | 0.00 | 62 | 1021.7 |
| 20260904061134 | 79 | 72 | 1.0 | 3.0 | 0.00 | 0.00 | 0.00 | 63 | 1021.7 |
| 20260904060633 | 79 | 72 | 1.0 | 2.0 | 0.00 | 0.00 | 0.00 | 59 | 1021.7 |
| 20260904060132 | 79 | 4 | 0.0 | 2.0 | 0.00 | 0.00 | 0.00 | 60 | 1021.7 |
| 20260904055910 | 79 | 4 | 0.0 | 2.0 | 0.00 | 0.00 | 0.00 | 62 | 1021.7 |
| 20260904055129 | 79 | 4 | 0.0 | 1.0 | 0.00 | 0.00 | 0.00 | 60 | 1021.6 |
| 20260904054901 | 78 | 4 | 0.0 | 1.0 | 0.00 | 0.00 | 0.00 | 60 | 1021.6 |
| 20260904054121 | 78 | 4 | 0.0 | 1.0 | 0.00 | 0.00 | 0.00 | 60 | 1021.6 |
| 20260904053614 | 77 | 4 | 0.0 | 0.0 | 0.00 | 0.00 | 0.00 | 63 | 1021.6 |
| 20260904053112 | 76 | 4 | 0.0 | 2.0 | 0.00 | 0.00 | 0.00 | 63 | 1021.6 |
| 20260904052611 | 75 | 4 | 0.0 | 2.0 | 0.00 | 0.00 | 0.00 | 64 | 1021.5 |
| 20260904052115 | 75 | 4 | 1.0 | 2.0 | 0.00 | 0.00 | 0.00 | 66 | 1021.5 |
| 20260904051607 | 74 | 4 | 1.0 | 2.0 | 0.00 | 0.00 | 0.00 | 66 | 1021.5 |
| 20260904051347 | 74 | 4 | 1.0 | 3.0 | 0.00 | 0.00 | 0.00 | 65 | 1021.5 |
| 20260904050617 | 73 | 4 | 1.0 | 3.0 | 0.00 | 0.00 | 0.00 | 64 | 1021.5 |
| 20260904050119 | 73 | 4 | 1.0 | 2.0 | 0.00 | 0.00 | 0.00 | 64 | 1021.4 |
| 20260904045602 | 73 | 4 | 2.0 | 3.0 | 0.00 | 0.00 | 0.00 | 63 | 1021.3 |
| 20260904045103 | 74 | 4 | 2.0 | 3.0 | 0.00 | 0.00 | 0.00 | 64 | 1021.3 |
| 20260904044602 | 74 | 4 | 2.0 | 2.0 | 0.00 | 0.00 | 0.00 | 65 | 1021.3 |
| 20260904044101 | 74 | 4 | 1.0 | 2.0 | 0.00 | 0.00 | 0.00 | 65 | 1021.3 |
| 20260904043558 | 74 | 4 | 2.0 | 2.0 | 0.00 | 0.00 | 0.00 | 66 | 1021.2 |
| 20260904043343 | 74 | 4 | 2.0 | 2.0 | 0.00 | 0.00 | 0.00 | 65 | 1021.2 |
| 20260904042557 | 74 | 4 | 1.0 | 2.0 | 0.00 | 0.00 | 0.00 | 66 | 1021.2 |
| 20260904042100 | 74 | 4 | 2.0 | 3.0 | 0.00 | 0.00 | 0.00 | 67 | 1021.2 |
| 20260904041556 | 74 | 4 | 2.0 | 3.0 | 0.00 | 0.00 | 0.00 | 67 | 1021.1 |
| 20260904041332 | 74 | 4 | 2.0 | 3.0 | 0.00 | 0.00 | 0.00 | 65 | 1021.1 |
| 20260904040548 | 74 | 4 | 2.0 | 3.0 | 0.00 | 0.00 | 0.00 | 66 | 1021.0 |
| 20260904040045 | 74 | 4 | 2.0 | 2.0 | 0.00 | 0.00 | 0.00 | 66 | 1021.0 |
| 20260904035545 | 74 | 4 | 2.0 | 3.0 | 0.00 | 0.00 | 0.00 | 66 | 1021.1 |
| 20260904035042 | 74 | 4 | 2.0 | 3.0 | 0.00 | 0.00 | 0.00 | 66 | 1021.1 |
| 20260904034541 | 74 | 4 | 2.0 | 3.0 | 0.00 | 0.00 | 0.00 | 66 | 1021.1 |
| 20260904034038 | 74 | 4 | 2.0 | 3.0 | 0.00 | 0.00 | 0.00 | 66 | 1021.2 |
| 20260904033910 | 74 | 4 | 2.0 | 2.0 | 0.00 | 0.00 | 0.00 | 64 | 1021.2 |
| 20260904033606 | 74 | 4 | 2.0 | 2.0 | 0.00 | 0.00 | 0.00 | 65 | 1021.2 |
| 20260904032538 | 74 | 4 | 2.0 | 2.0 | 0.00 | 0.00 | 0.00 | 63 | 1021.2 |
| 20260904032040 | 74 | 4 | 2.0 | 3.0 | 0.00 | 0.00 | 0.00 | 59 | 1021.2 |
| 20260904031541 | 74 | 4 | 2.0 | 3.0 | 0.00 | 0.00 | 0.00 | 56 | 1021.1 |
| 20260904031040 | 74 | 4 | 2.0 | 3.0 | 0.00 | 0.00 | 0.00 | 56 | 1021.1 |
| 20260904030538 | 74 | 4 | 2.0 | 3.0 | 0.00 | 0.00 | 0.00 | 54 | 1021.1 |
| 20260904030036 | 74 | 4 | 2.0 | 3.0 | 0.00 | 0.00 | 0.00 | 52 | 1021.1 |
| 20260904025528 | 74 | 4 | 2.0 | 3.0 | 0.00 | 0.00 | 0.00 | 53 | 1021.1 |
| 20260904025022 | 74 | 4 | 2.0 | 4.0 | 0.00 | 0.00 | 0.00 | 56 | 1021.1 |
| 20260904024523 | 74 | 4 | 2.0 | 4.0 | 0.00 | 0.00 | 0.00 | 57 | 1021.0 |
| 20260904024022 | 74 | 4 | 2.0 | 3.0 | 0.00 | 0.00 | 0.00 | 54 | 1021.0 |
| 20260904023522 | 74 | 4 | 2.0 | 3.0 | 0.00 | 0.00 | 0.00 | 54 | 1021.1 |
| 20260904023024 | 74 | 4 | 2.0 | 3.0 | 0.00 | 0.00 | 0.00 | 58 | 1021.1 |
| 20260904022519 | 74 | 4 | 2.0 | 3.0 | 0.00 | 0.00 | 0.00 | 59 | 1021.1 |
| 20260904022029 | 74 | 4 | 2.0 | 3.0 | 0.00 | 0.00 | 0.00 | 58 | 1021.2 |
| 20260904021518 | 75 | 4 | 2.0 | 3.0 | 0.00 | 0.00 | 0.00 | 57 | 1021.3 |
| 20260904021016 | 75 | 4 | 2.0 | 3.0 | 0.00 | 0.00 | 0.00 | 57 | 1021.2 |
| 20260904020515 | 75 | 4 | 2.0 | 3.0 | 0.00 | 0.00 | 0.00 | 58 | 1021.2 |
| 20260904020021 | 75 | 4 | 2.0 | 3.0 | 0.00 | 0.00 | 0.00 | 57 | 1021.2 |
| 20260904015517 | 75 | 4 | 2.0 | 3.0 | 0.00 | 0.00 | 0.00 | 57 | 1021.2 |
| 20260904015013 | 75 | 4 | 2.0 | 3.0 | 0.00 | 0.00 | 0.00 | 54 | 1021.2 |
| 20260904014516 | 75 | 4 | 2.0 | 3.0 | 0.00 | 0.00 | 0.00 | 54 | 1021.2 |
| 20260904014028 | 75 | 4 | 2.0 | 3.0 | 0.00 | 0.00 | 0.00 | 54 | 1021.2 |
| 20260904013512 | 75 | 349 | 2.0 | 3.0 | 0.00 | 0.00 | 0.00 | 55 | 1021.1 |
| 20260904013012 | 75 | 349 | 3.0 | 4.0 | 0.00 | 0.00 | 0.00 | 55 | 1021.2 |
| 20260904012512 | 75 | 349 | 3.0 | 4.0 | 0.00 | 0.00 | 0.00 | 55 | 1021.1 |
| 20260904012012 | 76 | 359 | 2.0 | 3.0 | 0.00 | 0.00 | 0.00 | 56 | 1021.1 |
| 20260904011511 | 76 | 354 | 2.0 | 3.0 | 0.00 | 0.00 | 0.00 | 57 | 1021.1 |
| 20260904011008 | 76 | 338 | 2.0 | 3.0 | 0.00 | 0.00 | 0.00 | 56 | 1021.1 |
| 20260904010509 | 76 | 338 | 2.0 | 3.0 | 0.00 | 0.00 | 0.00 | 56 | 1021.1 |
| 20260904010008 | 76 | 337 | 2.0 | 3.0 | 0.00 | 0.00 | 0.00 | 55 | 1021.1 |
| 20260904005510 | 76 | 337 | 2.0 | 3.0 | 0.00 | 0.00 | 0.00 | 56 | 1021.0 |
| 20260904005255 | 76 | 337 | 2.0 | 3.0 | 0.00 | 0.00 | 0.00 | 53 | 1021.0 |
| 20260904004508 | 76 | 337 | 2.0 | 3.0 | 0.00 | 0.00 | 0.00 | 55 | 1021.0 |
| 20260904004007 | 76 | 337 | 2.0 | 4.0 | 0.00 | 0.00 | 0.00 | 53 | 1021.0 |
| 20260904003506 | 76 | 321 | 2.0 | 4.0 | 0.00 | 0.00 | 0.00 | 53 | 1021.0 |
| 20260904003250 | 76 | 300 | 2.0 | 3.0 | 0.00 | 0.00 | 0.00 | 57 | 1021.0 |
| 20260904002510 | 76 | 300 | 2.0 | 3.0 | 0.00 | 0.00 | 0.00 | 55 | 1021.1 |
| 20260904002010 | 76 | 300 | 2.0 | 4.0 | 0.00 | 0.00 | 0.00 | 56 | 1021.1 |
| 20260904001507 | 76 | 293 | 2.0 | 4.0 | 0.00 | 0.00 | 0.00 | 55 | 1021.1 |
| 20260904001006 | 76 | 338 | 2.0 | 4.0 | 0.00 | 0.00 | 0.00 | 57 | 1021.2 |
| 20260904000506 | 76 | 339 | 2.0 | 3.0 | 0.00 | 0.00 | 0.00 | 57 | 1021.2 |
| 20260904000016 | 75 | 347 | 2.0 | 3.0 | 0.00 | 0.00 | 0.00 | 57 | 1021.3 |
| 20260903235802 | 75 | 4 | 2.0 | 3.0 | 0.00 | 0.00 | 0.00 | 57 | 1021.2 |
| 20260903235011 | 75 | 4 | 2.0 | 4.0 | 0.00 | 0.00 | 0.00 | 55 | 1021.3 |
| 20260903234511 | 75 | 4 | 2.0 | 4.0 | 0.00 | 0.00 | 0.00 | 53 | 1021.3 |
| 20260903234256 | 75 | 4 | 2.0 | 3.0 | 0.00 | 0.00 | 0.00 | 52 | 1021.2 |
| 20260903233508 | 75 | 4 | 2.0 | 3.0 | 0.00 | 0.00 | 0.00 | 53 | 1021.2 |
| 20260903233008 | 75 | 340 | 2.0 | 3.0 | 0.00 | 0.00 | 0.00 | 53 | 1021.3 |
| 20260903232515 | 75 | 340 | 2.0 | 3.0 | 0.00 | 0.00 | 0.00 | 53 | 1021.2 |
| 20260903232258 | 75 | 340 | 2.0 | 3.0 | 0.00 | 0.00 | 0.00 | 52 | 1021.2 |
| 20260903231949 | 75 | 340 | 2.0 | 3.0 | 0.00 | 0.00 | 0.00 | 52 | 1021.2 |
| 20260903231601 | 75 | 340 | 2.0 | 3.0 | 0.00 | 0.00 | 0.00 | 53 | 1021.2 |
| 20260903230507 | 75 | 338 | 2.0 | 3.0 | 0.00 | 0.00 | 0.00 | 53 | 1021.3 |
| 20260903230006 | 75 | 337 | 3.0 | 4.0 | 0.00 | 0.00 | 0.00 | 55 | 1021.3 |
| 20260903225507 | 75 | 337 | 3.0 | 4.0 | 0.00 | 0.00 | 0.00 | 57 | 1021.4 |
| 20260903225008 | 75 | 335 | 3.0 | 4.0 | 0.00 | 0.00 | 0.00 | 57 | 1021.4 |
| 20260903224507 | 75 | 334 | 3.0 | 4.0 | 0.00 | 0.00 | 0.00 | 56 | 1021.3 |
| 20260903224005 | 74 | 335 | 3.0 | 4.0 | 0.00 | 0.00 | 0.00 | 56 | 1021.3 |
| 20260903223747 | 74 | 340 | 3.0 | 4.0 | 0.00 | 0.00 | 0.00 | 58 | 1021.3 |
| 20260903223001 | 74 | 315 | 2.0 | 4.0 | 0.00 | 0.00 | 0.00 | 61 | 1021.2 |
| 20260903222503 | 74 | 302 | 2.0 | 4.0 | 0.00 | 0.00 | 0.00 | 63 | 1021.2 |
| 20260903222311 | 74 | 341 | 3.0 | 4.0 | 0.00 | 0.00 | 0.00 | 64 | 1021.2 |
| 20260903221743 | 74 | 316 | 3.0 | 4.0 | 0.00 | 0.00 | 0.00 | 58 | 1021.2 |
| 20260903220956 | 74 | 333 | 2.0 | 3.0 | 0.00 | 0.00 | 0.00 | 60 | 1021.3 |
| 20260903220743 | 74 | 342 | 3.0 | 3.0 | 0.00 | 0.00 | 0.00 | 61 | 1021.3 |
| 20260903215956 | 74 | 337 | 3.0 | 3.0 | 0.00 | 0.00 | 0.00 | 65 | 1021.4 |
| 20260903215733 | 74 | 354 | 3.0 | 4.0 | 0.00 | 0.00 | 0.00 | 67 | 1021.3 |
| 20260903214957 | 75 | 301 | 3.0 | 4.0 | 0.00 | 0.00 | 0.00 | 69 | 1021.2 |
| 20260903214455 | 75 | 354 | 3.0 | 4.0 | 0.00 | 0.00 | 0.00 | 70 | 1021.2 |
| 20260903213950 | 75 | 354 | 2.0 | 4.0 | 0.00 | 0.00 | 0.00 | 71 | 1021.3 |
| 20260903213443 | 75 | 341 | 2.0 | 4.0 | 0.00 | 0.00 | 0.00 | 74 | 1021.3 |
| 20260903212941 | 75 | 341 | 2.0 | 3.0 | 0.00 | 0.00 | 0.00 | 74 | 1021.3 |
| 20260903212443 | 75 | 316 | 2.0 | 3.0 | 0.00 | 0.00 | 0.00 | 75 | 1021.3 |
| 20260903212223 | 75 | 316 | 2.0 | 3.0 | 0.00 | 0.00 | 0.00 | 75 | 1021.4 |
| 20260903211439 | 75 | 314 | 2.0 | 3.0 | 0.00 | 0.00 | 0.00 | 74 | 1021.3 |
| 20260903210937 | 75 | 314 | 2.0 | 3.0 | 0.00 | 0.00 | 0.00 | 74 | 1021.3 |
| 20260903210437 | 75 | 312 | 2.0 | 3.0 | 0.00 | 0.00 | 0.00 | 75 | 1021.2 |
| 20260903210240 | 75 | 312 | 2.0 | 3.0 | 0.00 | 0.00 | 0.00 | 75 | 1021.2 |
| 20260903205714 | 75 | 312 | 2.0 | 3.0 | 0.00 | 0.00 | 0.00 | 75 | 1021.1 |
| 20260903204935 | 75 | 312 | 2.0 | 3.0 | 0.00 | 0.00 | 0.00 | 75 | 1021.1 |
| 20260903204434 | 75 | 309 | 2.0 | 3.0 | 0.00 | 0.00 | 0.00 | 75 | 1021.1 |
| 20260903203933 | 75 | 308 | 2.0 | 3.0 | 0.00 | 0.00 | 0.00 | 75 | 1021.2 |
| 20260903203432 | 75 | 308 | 2.0 | 3.0 | 0.00 | 0.00 | 0.00 | 75 | 1021.2 |
| 20260903202934 | 75 | 308 | 2.0 | 3.0 | 0.00 | 0.00 | 0.00 | 75 | 1021.2 |
| 20260903202432 | 75 | 308 | 2.0 | 3.0 | 0.00 | 0.00 | 0.00 | 75 | 1021.2 |
| 20260903201933 | 75 | 301 | 2.0 | 3.0 | 0.00 | 0.00 | 0.00 | 76 | 1021.2 |
| 20260903201436 | 75 | 286 | 2.0 | 3.0 | 0.00 | 0.00 | 0.00 | 76 | 1021.1 |
| 20260903200943 | 75 | 286 | 2.0 | 3.0 | 0.00 | 0.00 | 0.00 | 76 | 1021.1 |
| 20260903200433 | 75 | 286 | 1.0 | 3.0 | 0.00 | 0.00 | 0.00 | 76 | 1021.2 |
| 20260903200018 | 75 | 286 | 2.0 | 3.0 | 0.00 | 0.00 | 0.00 | 76 | 1021.1 |
| 20260903195958 | 75 | 286 | 2.0 | 2.0 | 0.00 | 0.00 | 0.00 | 76 | 1021.1 |
| 20260903195217 | 75 | 286 | 2.0 | 3.0 | 0.00 | 0.00 | 0.00 | 76 | 1021.1 |
| 20260903194432 | 75 | 278 | 2.0 | 3.0 | 0.00 | 0.00 | 0.00 | 76 | 1021.1 |
| 20260903193934 | 75 | 278 | 2.0 | 3.0 | 0.00 | 0.00 | 0.00 | 76 | 1021.0 |
| 20260903193435 | 75 | 276 | 2.0 | 3.0 | 0.00 | 0.00 | 0.00 | 76 | 1021.0 |
| 20260903193221 | 75 | 276 | 2.0 | 3.0 | 0.00 | 0.00 | 0.00 | 76 | 1021.1 |
| 20260903192434 | 75 | 276 | 2.0 | 2.0 | 0.00 | 0.00 | 0.00 | 76 | 1020.9 |
| 20260903191934 | 75 | 276 | 1.0 | 3.0 | 0.00 | 0.00 | 0.00 | 76 | 1020.9 |
| 20260903191428 | 75 | 276 | 1.0 | 3.0 | 0.00 | 0.00 | 0.00 | 76 | 1020.9 |
| 20260903190921 | 75 | 276 | 1.0 | 2.0 | 0.00 | 0.00 | 0.00 | 76 | 1020.9 |
| 20260903190656 | 75 | 276 | 1.0 | 2.0 | 0.00 | 0.00 | 0.00 | 76 | 1021.0 |
| 20260903185919 | 75 | 276 | 1.0 | 2.0 | 0.00 | 0.00 | 0.00 | 76 | 1021.0 |
| 20260903185711 | 75 | 276 | 1.0 | 2.0 | 0.00 | 0.00 | 0.00 | 76 | 1021.0 |
| 20260903184921 | 75 | 276 | 1.0 | 2.0 | 0.00 | 0.00 | 0.00 | 76 | 1020.9 |
| 20260903184417 | 75 | 276 | 1.0 | 2.0 | 0.00 | 0.00 | 0.00 | 76 | 1020.8 |
| 20260903183920 | 75 | 276 | 1.0 | 2.0 | 0.00 | 0.00 | 0.00 | 77 | 1020.8 |
| 20260903183416 | 75 | 276 | 2.0 | 3.0 | 0.00 | 0.00 | 0.00 | 77 | 1020.8 |
| 20260903182918 | 75 | 276 | 1.0 | 3.0 | 0.00 | 0.00 | 0.00 | 76 | 1020.7 |
| 20260903182415 | 76 | 276 | 1.0 | 2.0 | 0.00 | 0.00 | 0.00 | 76 | 1020.8 |
| 20260903181916 | 76 | 276 | 1.0 | 2.0 | 0.00 | 0.00 | 0.00 | 76 | 1020.7 |
| 20260903181656 | 76 | 276 | 1.0 | 2.0 | 0.00 | 0.00 | 0.00 | 76 | 1020.7 |
| 20260903180909 | 76 | 276 | 1.0 | 3.0 | 0.00 | 0.00 | 0.00 | 76 | 1020.7 |
| 20260903180411 | 76 | 276 | 1.0 | 3.0 | 0.00 | 0.00 | 0.00 | 76 | 1020.7 |
| 20260903175909 | 76 | 276 | 1.0 | 2.0 | 0.00 | 0.00 | 0.00 | 76 | 1020.6 |
| 20260903175411 | 76 | 276 | 1.0 | 2.0 | 0.00 | 0.00 | 0.00 | 76 | 1020.6 |
| 20260903174910 | 76 | 276 | 1.0 | 2.0 | 0.00 | 0.00 | 0.00 | 75 | 1020.7 |
| 20260903174409 | 76 | 276 | 1.0 | 2.0 | 0.00 | 0.00 | 0.00 | 75 | 1020.6 |
| 20260903173909 | 76 | 276 | 1.0 | 2.0 | 0.00 | 0.00 | 0.00 | 75 | 1020.6 |
| 20260903173409 | 77 | 276 | 1.0 | 2.0 | 0.00 | 0.00 | 0.00 | 75 | 1020.6 |
| 20260903172911 | 77 | 276 | 1.0 | 2.0 | 0.00 | 0.00 | 0.00 | 75 | 1020.6 |
| 20260903172412 | 77 | 276 | 1.0 | 2.0 | 0.00 | 0.00 | 0.00 | 75 | 1020.6 |
| 20260903171910 | 77 | 276 | 1.0 | 2.0 | 0.00 | 0.00 | 0.00 | 75 | 1020.5 |
| 20260903171409 | 77 | 276 | 1.0 | 3.0 | 0.00 | 0.00 | 0.00 | 75 | 1020.5 |
| 20260903171203 | 77 | 276 | 2.0 | 3.0 | 0.00 | 0.00 | 0.00 | 74 | 1020.5 |
| 20260903170425 | 77 | 276 | 2.0 | 3.0 | 0.00 | 0.00 | 0.00 | 74 | 1020.5 |
| 20260903165907 | 78 | 276 | 2.0 | 3.0 | 0.00 | 0.00 | 0.00 | 73 | 1020.5 |
| 20260903165407 | 78 | 276 | 1.0 | 2.0 | 0.00 | 0.00 | 0.00 | 73 | 1020.5 |
| 20260903164909 | 78 | 275 | 2.0 | 3.0 | 0.00 | 0.00 | 0.00 | 72 | 1020.5 |
| 20260903164412 | 78 | 275 | 2.0 | 4.0 | 0.00 | 0.00 | 0.00 | 71 | 1020.5 |
| 20260903163907 | 78 | 275 | 2.0 | 4.0 | 0.00 | 0.00 | 0.00 | 71 | 1020.5 |
| 20260903163441 | 78 | 61 | 1.0 | 3.0 | 0.00 | 0.00 | 0.00 | 72 | 1020.5 |
| 20260903163427 | 78 | 293 | 1.0 | 4.0 | 0.00 | 0.00 | 0.00 | 71 | 1020.5 |
| 20260903162408 | 78 | 61 | 1.0 | 3.0 | 0.00 | 0.00 | 0.00 | 71 | 1020.5 |
| 20260903161907 | 78 | 287 | 2.0 | 4.0 | 0.00 | 0.00 | 0.00 | 71 | 1020.6 |
| 20260903161407 | 78 | 287 | 2.0 | 4.0 | 0.00 | 0.00 | 0.00 | 70 | 1020.5 |
| 20260903160912 | 78 | 234 | 1.0 | 3.0 | 0.00 | 0.00 | 0.00 | 71 | 1020.4 |
| 20260903160405 | 79 | 150 | 1.0 | 3.0 | 0.00 | 0.00 | 0.00 | 71 | 1020.6 |
| 20260903160151 | 79 | 149 | 1.0 | 2.0 | 0.00 | 0.00 | 0.00 | 73 | 1020.6 |
| 20260903155406 | 79 | 149 | 1.0 | 2.0 | 0.00 | 0.00 | 0.00 | 72 | 1020.4 |
| 20260903154905 | 80 | 149 | 1.0 | 2.0 | 0.00 | 0.00 | 0.00 | 72 | 1020.4 |
| 20260903154405 | 80 | 149 | 1.0 | 3.0 | 0.00 | 0.00 | 0.00 | 72 | 1020.6 |
| 20260903153904 | 80 | 149 | 1.0 | 3.0 | 0.00 | 0.00 | 0.00 | 70 | 1020.6 |
| 20260903153408 | 80 | 231 | 0.0 | 2.0 | 0.00 | 0.00 | 0.00 | 71 | 1020.7 |
| 20260903152907 | 80 | 278 | 1.0 | 4.0 | 0.00 | 0.00 | 0.00 | 70 | 1020.7 |
| 20260903152419 | 80 | 278 | 1.0 | 4.0 | 0.00 | 0.00 | 0.00 | 69 | 1020.6 |
| 20260903151919 | 81 | 291 | 1.0 | 3.0 | 0.00 | 0.00 | 0.00 | 69 | 1020.7 |
| 20260903151420 | 81 | 148 | 1.0 | 2.0 | 0.00 | 0.00 | 0.00 | 69 | 1020.6 |
| 20260903150905 | 80 | 149 | 1.0 | 3.0 | 0.00 | 0.00 | 0.00 | 67 | 1020.6 |
| 20260903150405 | 80 | 149 | 1.0 | 3.0 | 0.00 | 0.00 | 0.00 | 67 | 1020.7 |
| 20260903145906 | 81 | 139 | 1.0 | 3.0 | 0.00 | 0.00 | 0.00 | 65 | 1020.8 |
| 20260903145405 | 81 | 139 | 1.0 | 2.0 | 0.00 | 0.00 | 0.00 | 66 | 1020.7 |
| 20260903144903 | 81 | 139 | 1.0 | 2.0 | 0.00 | 0.00 | 0.00 | 65 | 1020.7 |
| 20260903144443 | 82 | 139 | 1.0 | 3.0 | 0.00 | 0.00 | 0.00 | 65 | 1020.9 |
| 20260903144424 | 82 | 139 | 1.0 | 3.0 | 0.00 | 0.00 | 0.00 | 66 | 1020.9 |
| 20260903143649 | 82 | 139 | 1.0 | 3.0 | 0.00 | 0.00 | 0.00 | 65 | 1020.9 |
| 20260903142857 | 82 | 140 | 1.0 | 2.0 | 0.00 | 0.00 | 0.00 | 63 | 1021.0 |
| 20260903142426 | 82 | 141 | 2.0 | 6.0 | 0.00 | 0.00 | 0.00 | 63 | 1021.0 |
| 20260903142414 | 82 | 141 | 1.0 | 4.0 | 0.00 | 0.00 | 0.00 | 64 | 1021.0 |
| 20260903141358 | 82 | 138 | 2.0 | 6.0 | 0.00 | 0.00 | 0.00 | 61 | 1021.0 |
| 20260903140855 | 82 | 122 | 2.0 | 6.0 | 0.00 | 0.00 | 0.00 | 61 | 1021.0 |
| 20260903140353 | 82 | 144 | 2.0 | 6.0 | 0.00 | 0.00 | 0.00 | 61 | 1021.0 |
| 20260903135853 | 82 | 161 | 3.0 | 7.0 | 0.00 | 0.00 | 0.00 | 60 | 1021.0 |
| 20260903135353 | 82 | 115 | 3.0 | 7.0 | 0.00 | 0.00 | 0.00 | 61 | 1021.1 |
| 20260903134854 | 82 | 144 | 3.0 | 8.0 | 0.00 | 0.00 | 0.00 | 62 | 1021.1 |
| 20260903134354 | 83 | 99 | 3.0 | 8.0 | 0.00 | 0.00 | 0.00 | 61 | 1021.2 |
| 20260903133854 | 83 | 125 | 2.0 | 7.0 | 0.00 | 0.00 | 0.00 | 61 | 1021.2 |
| 20260903133349 | 83 | 135 | 2.0 | 7.0 | 0.00 | 0.00 | 0.00 | 62 | 1021.2 |
| 20260903132848 | 83 | 133 | 3.0 | 7.0 | 0.00 | 0.00 | 0.00 | 62 | 1021.2 |
| 20260903132350 | 83 | 145 | 2.0 | 8.0 | 0.00 | 0.00 | 0.00 | 61 | 1021.2 |
| 20260903131842 | 83 | 150 | 3.0 | 9.0 | 0.00 | 0.00 | 0.00 | 62 | 1021.1 |
| 20260903131341 | 83 | 176 | 3.0 | 9.0 | 0.00 | 0.00 | 0.00 | 62 | 1021.1 |
| 20260903130837 | 83 | 154 | 3.0 | 7.0 | 0.00 | 0.00 | 0.00 | 62 | 1021.1 |
| 20260903130337 | 83 | 42 | 3.0 | 10.0 | 0.00 | 0.00 | 0.00 | 62 | 1021.1 |
| 20260903125839 | 83 | 149 | 3.0 | 10.0 | 0.00 | 0.00 | 0.00 | 61 | 1021.1 |
| 20260903125624 | 83 | 152 | 3.0 | 8.0 | 0.00 | 0.00 | 0.00 | 61 | 1021.1 |
| 20260903124834 | 83 | 145 | 3.0 | 7.0 | 0.00 | 0.00 | 0.00 | 62 | 1021.0 |
| 20260903124333 | 83 | 160 | 3.0 | 7.0 | 0.00 | 0.00 | 0.00 | 63 | 1021.0 |
| 20260903123832 | 83 | 143 | 3.0 | 9.0 | 0.00 | 0.00 | 0.00 | 65 | 1021.0 |
| 20260903123334 | 83 | 97 | 3.0 | 9.0 | 0.00 | 0.00 | 0.00 | 64 | 1021.0 |
| 20260903122833 | 83 | 151 | 3.0 | 7.0 | 0.00 | 0.00 | 0.00 | 64 | 1021.1 |
| 20260903122333 | 83 | 131 | 3.0 | 7.0 | 0.00 | 0.00 | 0.00 | 65 | 1021.1 |
| 20260903122135 | 83 | 140 | 3.0 | 7.0 | 0.00 | 0.00 | 0.00 | 65 | 1021.1 |
| 20260903121332 | 83 | 113 | 3.0 | 9.0 | 0.00 | 0.00 | 0.00 | 66 | 1021.1 |
| 20260903120832 | 82 | 101 | 4.0 | 9.0 | 0.00 | 0.00 | 0.00 | 66 | 1021.2 |
| 20260903120331 | 82 | 206 | 4.0 | 9.0 | 0.00 | 0.00 | 0.00 | 65 | 1021.2 |
| 20260903120224 | 82 | 186 | 3.0 | 8.0 | 0.00 | 0.00 | 0.00 | 66 | 1021.3 |
| 20260903115314 | 83 | 126 | 3.0 | 8.0 | 0.00 | 0.00 | 0.00 | 70 | 1021.3 |
| 20260903115058 | 83 | 106 | 3.0 | 8.0 | 0.00 | 0.00 | 0.00 | 71 | 1021.3 |
| 20260903114312 | 83 | 140 | 3.0 | 7.0 | 0.00 | 0.00 | 0.00 | 70 | 1021.3 |
| 20260903114109 | 83 | 148 | 3.0 | 7.0 | 0.00 | 0.00 | 0.00 | 69 | 1021.3 |
| 20260903113634 | 83 | 165 | 3.0 | 6.0 | 0.00 | 0.00 | 0.00 | 70 | 1021.3 |
| 20260903113121 | 82 | 122 | 3.0 | 7.0 | 0.00 | 0.00 | 0.00 | 71 | 1021.3 |
| 20260903112313 | 82 | 151 | 3.0 | 7.0 | 0.00 | 0.00 | 0.00 | 70 | 1021.3 |
| 20260903111813 | 82 | 110 | 3.0 | 7.0 | 0.00 | 0.00 | 0.00 | 70 | 1021.4 |
| 20260903111313 | 82 | 134 | 3.0 | 10.0 | 0.00 | 0.00 | 0.00 | 70 | 1021.5 |
| 20260903110811 | 83 | 169 | 3.0 | 10.0 | 0.00 | 0.00 | 0.00 | 70 | 1021.5 |
| 20260903110309 | 82 | 110 | 3.0 | 8.0 | 0.00 | 0.00 | 0.00 | 70 | 1021.5 |
| 20260903105809 | 82 | 143 | 3.0 | 6.0 | 0.00 | 0.00 | 0.00 | 70 | 1021.6 |
| 20260903105311 | 82 | 143 | 2.0 | 6.0 | 0.00 | 0.00 | 0.00 | 70 | 1021.5 |